Home > Weather > Skopje > Past weeks

Flag for Macedonia, Republic of Weather for the Past 2 Weeks in Skopje, Macedonia, Republic of

Now
32 °F

Ice fog.


Feels Like: 32 °F
Forecast: 34 / 50 °F
Wind: No wind

Location: Skopje-Petrovec

Current Time: Feb 10, 2016 at 2:00:59 AM

Latest Report: Feb 10, 2016 at 1:30 AM


Visibility: 3 mi

Pressure: 29.95 "Hg

Humidity: 100%

Dew point: 32 °F

Location of SkopjeLocation

Historic Weather in Skopje — Graph

°F

Skopje Temperature Yesterday

Maximum temperature yesterday: 54 °F (at 2:30 PM)
Minimum temperature yesterday: 25 °F (at 6:00 AM)
Average temperature yesterday: 37 °F

High & Low Weather Summary for the Past Weeks

 TemperatureHumidityPressure
High66 °F (Feb 2, 2:30 PM)100% (Jan 27, 3:00 AM)30.51 "Hg (Jan 27, 3:00 AM)
Low21 °F (Feb 7, 6:00 AM)29% (Feb 6, 2:00 PM)29.86 "Hg (Feb 4, 5:00 AM)
Average39 °F78%30.26 "Hg
* Reported Midnight between Jan 25 and Jan 26 — Feb 10 12:30 AM, Skopje, Weather by CustomWeather, © 2016

Note: Actual official high and low records may vary slightly from our data, if they occured in-between our weather recording intervals... More about our weather records

Advertising

Skopje Weather History for the Previous 24 Hours

 ConditionsComfort  
Time TempWeatherWind HumidityBarometerVisibility
12:30 AM
Wed, Feb 10
34 °FFog.2 mph93%29.98 "Hg3 mi
12:00 AM34 °FFog.2 mph93%29.98 "Hg3 mi
11:30 PM
Tue, Feb 9
36 °FClear.2 mph93%29.98 "Hg4 mi
10:30 PM36 °FClear.No wind87%30.01 "Hg5 mi
10:00 PM37 °FClear.No wind87%30.01 "Hg5 mi
9:30 PM37 °FClear.No wind87%30.04 "Hg10 mi
9:00 PM37 °FClear.3 mph87%30.01 "Hg10 mi
8:30 PM39 °FClear.2 mph87%30.04 "Hg10 mi
8:00 PM39 °FClear.3 mph87%30.04 "Hg10 mi
7:30 PM39 °FClear.3 mph87%30.04 "Hg10 mi
7:00 PM39 °FClear.No wind87%30.07 "Hg10 mi
6:30 PM41 °FClear.2 mph81%30.07 "Hg10 mi
6:00 PM41 °FClear.2 mph81%30.07 "Hg10 mi
5:00 PM48 °FClear.2 mph66%30.07 "Hg10 mi
4:30 PM52 °FSunny.2 mph62%30.07 "Hg10 mi
4:00 PM52 °FSunny.2 mph62%30.07 "Hg10 mi
3:30 PM54 °FSunny.2 mph58%30.09 "Hg10 mi
3:00 PM54 °FSunny.2 mph58%30.09 "Hg10 mi
2:30 PM54 °FSunny.2 mph58%30.09 "Hg10 mi
2:00 PM52 °FSunny.1 mph62%30.09 "Hg10 mi
1:30 PM50 °FSunny.3 mph67%30.12 "Hg10 mi
12:30 PM48 °FPassing clouds.5 mph66%30.15 "HgN/A
11:30 AM45 °FPassing clouds.No wind71%30.18 "Hg10 mi
11:00 AM39 °FPassing clouds.No wind81%30.21 "HgN/A
10:30 AM37 °FFog.2 mph81%30.24 "Hg2 mi
9:30 AM36 °FFog.2 mph87%30.24 "Hg2 mi
9:00 AM34 °FFog.1 mph93%30.24 "Hg2 mi
8:30 AM32 °FIce fog.No wind93%30.24 "Hg2 mi
8:00 AM30 °FIce fog.No wind93%30.24 "Hg2 mi
7:30 AM30 °FIce fog.No wind93%30.21 "Hg2 mi
7:00 AM28 °FIce fog.No wind93%30.21 "Hg3 mi
6:30 AM27 °FPassing clouds.No wind100%30.21 "Hg4 mi
6:00 AM25 °FPassing clouds.No wind93%30.21 "Hg4 mi
5:30 AM27 °FClear.No wind86%30.21 "Hg4 mi
5:00 AM27 °FClear.5 mph100%30.21 "Hg10 mi
4:30 AM27 °FClear.2 mph93%30.21 "Hg10 mi
3:30 AM28 °FClear.2 mph93%30.21 "Hg10 mi
3:00 AM28 °FClear.5 mph86%30.21 "Hg10 mi
2:00 AM28 °FClear.No wind93%30.24 "Hg10 mi
Weather by CustomWeather, © 2016

See weather overviewHow to use our weather pages